Location: Newark
(40.9833°N, 0.0333°W)
Time: 02:28:48
(UTC+00:00)

Altair - Pass Details

Date: 31 October 2020
Orbit: 1502 x 1682 km, 47.2° (Epoch: 02 December)

Event Time Altitude Azimuth Distance (km) Brightness Sun altitude
Rises 04:35:18 0° 239° (WSW) 4,630 - -22.1°
Reaches altitude 10° 04:38:17 10° 239° (WSW) 3,658 - -21.6°
Exits shadow 04:41:19 24° 239° (WSW) 2,714 8.3 -21.0°
Maximum altitude 04:47:32 88° 151° (SSE) 1,540 7.4 -19.8°
Drops below altitude 10° 04:57:06 10° 64° (ENE) 3,780 10.5 -18.0°
Sets 05:00:14 0° 64° (ENE) 4,791 11.2 -17.4°
